| time (UTC) | temp F | wind direction | speed MPH | gust MPH | rain 1hr in | rain 24hr in | rain mn in | humidity % | barometer mb |
| 20260906191744 | 79 | 81 | 0.0 | 4.0 | 0.00 | 0.00 | 0.00 | 67 | 1006.9 |
| 20260906191501 | 80 | 86 | 1.0 | 4.0 | 0.00 | 0.00 | 0.00 | 65 | 1007.0 |
| 20260906190744 | 80 | 85 | 1.0 | 7.0 | 0.00 | 0.00 | 0.00 | 64 | 1006.9 |
| 20260906190240 | 80 | 73 | 2.0 | 7.0 | 0.00 | 0.00 | 0.00 | 63 | 1006.9 |
| 20260906185740 | 80 | 330 | 2.0 | 8.0 | 0.00 | 0.00 | 0.00 | 65 | 1007.0 |
| 20260906185240 | 80 | 53 | 3.0 | 8.0 | 0.00 | 0.00 | 0.00 | 61 | 1007.0 |
| 20260906184740 | 81 | 79 | 2.0 | 7.0 | 0.00 | 0.00 | 0.00 | 60 | 1007.1 |
| 20260906184240 | 81 | 44 | 1.0 | 5.0 | 0.00 | 0.00 | 0.00 | 60 | 1007.2 |
| 20260906184004 | 81 | 58 | 2.0 | 7.0 | 0.00 | 0.00 | 0.00 | 58 | 1007.3 |
| 20260906183240 | 81 | 53 | 1.0 | 7.0 | 0.00 | 0.00 | 0.00 | 59 | 1007.2 |
| 20260906182740 | 82 | 44 | 1.0 | 7.0 | 0.00 | 0.00 | 0.00 | 60 | 1007.2 |
| 20260906181953 | 81 | 45 | 1.0 | 6.0 | 0.00 | 0.00 | 0.00 | 59 | 1007.3 |
| 20260906181235 | 80 | 53 | 2.0 | 5.0 | 0.00 | 0.00 | 0.00 | 60 | 1007.2 |
| 20260906180736 | 80 | 108 | 2.0 | 6.0 | 0.00 | 0.00 | 0.00 | 61 | 1007.4 |
| 20260906180236 | 81 | 67 | 2.0 | 6.0 | 0.00 | 0.00 | 0.00 | 58 | 1007.4 |
| 20260906175735 | 81 | 268 | 1.0 | 5.0 | 0.00 | 0.00 | 0.00 | 60 | 1007.5 |
| 20260906175236 | 80 | 56 | 1.0 | 5.0 | 0.00 | 0.00 | 0.00 | 59 | 1007.5 |
| 20260906175001 | 80 | 84 | 2.0 | 8.0 | 0.00 | 0.00 | 0.00 | 59 | 1007.6 |
| 20260906174236 | 80 | 63 | 2.0 | 8.0 | 0.00 | 0.00 | 0.00 | 60 | 1007.7 |
| 20260906173736 | 80 | 54 | 1.0 | 7.0 | 0.00 | 0.00 | 0.00 | 62 | 1007.6 |
| 20260906173236 | 79 | 49 | 2.0 | 7.0 | 0.00 | 0.00 | 0.00 | 64 | 1007.7 |
| 20260906172735 | 79 | 18 | 4.0 | 11.0 | 0.00 | 0.00 | 0.00 | 64 | 1007.7 |
| 20260906172235 | 79 | 78 | 3.0 | 11.0 | 0.00 | 0.00 | 0.00 | 64 | 1007.7 |
| 20260906171736 | 79 | 54 | 2.0 | 10.0 | 0.00 | 0.00 | 0.00 | 66 | 1007.7 |
| 20260906171235 | 79 | 63 | 2.0 | 9.0 | 0.00 | 0.00 | 0.00 | 64 | 1007.8 |
| 20260906170736 | 78 | 86 | 3.0 | 10.0 | 0.00 | 0.00 | 0.00 | 66 | 1007.9 |
| 20260906170235 | 78 | 69 | 2.0 | 10.0 | 0.00 | 0.00 | 0.00 | 64 | 1007.9 |
| 20260906165735 | 78 | 59 | 1.0 | 7.0 | 0.00 | 0.00 | 0.00 | 65 | 1007.8 |
| 20260906165235 | 78 | 76 | 2.0 | 8.0 | 0.00 | 0.00 | 0.00 | 66 | 1007.8 |
| 20260906164736 | 78 | 83 | 2.0 | 8.0 | 0.00 | 0.00 | 0.00 | 64 | 1007.8 |
| 20260906164235 | 78 | 72 | 1.0 | 5.0 | 0.00 | 0.00 | 0.00 | 66 | 1007.8 |
| 20260906163734 | 77 | 70 | 1.0 | 5.0 | 0.00 | 0.00 | 0.00 | 63 | 1007.8 |
| 20260906163233 | 77 | 33 | 1.0 | 5.0 | 0.00 | 0.00 | 0.00 | 67 | 1007.8 |
| 20260906162956 | 77 | 172 | 2.0 | 7.0 | 0.00 | 0.00 | 0.00 | 68 | 1007.7 |
| 20260906162233 | 76 | 101 | 3.0 | 7.0 | 0.00 | 0.00 | 0.00 | 65 | 1007.9 |
| 20260906161727 | 76 | 136 | 3.0 | 7.0 | 0.00 | 0.00 | 0.00 | 66 | 1007.9 |
| 20260906161225 | 76 | 84 | 3.0 | 7.0 | 0.00 | 0.00 | 0.00 | 66 | 1007.9 |
| 20260906160726 | 77 | 86 | 2.0 | 6.0 | 0.00 | 0.00 | 0.00 | 69 | 1007.9 |
| 20260906160225 | 76 | 82 | 3.0 | 8.0 | 0.00 | 0.00 | 0.00 | 72 | 1007.9 |
| 20260906155723 | 76 | 65 | 3.0 | 8.0 | 0.00 | 0.00 | 0.00 | 69 | 1008.0 |
| 20260906155224 | 76 | 62 | 2.0 | 5.0 | 0.00 | 0.00 | 0.00 | 69 | 1008.0 |
| 20260906154723 | 76 | 78 | 1.0 | 6.0 | 0.00 | 0.00 | 0.00 | 71 | 1008.0 |
| 20260906154221 | 76 | 66 | 2.0 | 7.0 | 0.00 | 0.00 | 0.00 | 70 | 1008.0 |
| 20260906153722 | 76 | 101 | 3.0 | 7.0 | 0.00 | 0.00 | 0.00 | 70 | 1008.1 |
| 20260906153222 | 75 | 12 | 2.0 | 7.0 | 0.00 | 0.00 | 0.00 | 73 | 1008.1 |
| 20260906152720 | 75 | 69 | 1.0 | 7.0 | 0.00 | 0.00 | 0.00 | 72 | 1008.2 |
| 20260906152223 | 75 | 37 | 1.0 | 5.0 | 0.00 | 0.00 | 0.00 | 74 | 1008.1 |
| 20260906151936 | 75 | 89 | 1.0 | 6.0 | 0.00 | 0.00 | 0.00 | 74 | 1008.1 |
| 20260906151209 | 74 | 43 | 2.0 | 9.0 | 0.00 | 0.00 | 0.00 | 75 | 1008.1 |
| 20260906150703 | 74 | 90 | 3.0 | 9.0 | 0.00 | 0.00 | 0.00 | 73 | 1008.0 |
| 20260906150156 | 74 | 121 | 3.0 | 11.0 | 0.00 | 0.00 | 0.00 | 74 | 1008.0 |
| 20260906145652 | 74 | 86 | 2.0 | 11.0 | 0.00 | 0.00 | 0.00 | 74 | 1007.8 |
| 20260906145146 | 74 | 75 | 2.0 | 5.0 | 0.00 | 0.00 | 0.00 | 75 | 1007.8 |
| 20260906144640 | 74 | 79 | 2.0 | 5.0 | 0.00 | 0.00 | 0.00 | 75 | 1007.8 |
| 20260906144133 | 73 | 66 | 2.0 | 6.0 | 0.00 | 0.00 | 0.00 | 76 | 1007.9 |
| 20260906143627 | 73 | 127 | 2.0 | 6.0 | 0.00 | 0.00 | 0.00 | 77 | 1007.8 |
| 20260906143122 | 73 | 66 | 3.0 | 6.0 | 0.00 | 0.00 | 0.00 | 77 | 1007.8 |
| 20260906142615 | 73 | 65 | 3.0 | 7.0 | 0.00 | 0.00 | 0.00 | 77 | 1007.9 |
| 20260906142108 | 72 | 94 | 3.0 | 8.0 | 0.00 | 0.00 | 0.00 | 76 | 1007.8 |
| 20260906141603 | 72 | 64 | 3.0 | 8.0 | 0.00 | 0.00 | 0.00 | 78 | 1007.6 |
| 20260906141057 | 72 | 88 | 2.0 | 8.0 | 0.00 | 0.00 | 0.00 | 80 | 1007.6 |
| 20260906140552 | 72 | 82 | 2.0 | 6.0 | 0.00 | 0.00 | 0.00 | 79 | 1007.6 |
| 20260906140045 | 72 | 105 | 2.0 | 8.0 | 0.00 | 0.00 | 0.00 | 81 | 1007.6 |
| 20260906135540 | 71 | 79 | 2.0 | 8.0 | 0.00 | 0.00 | 0.00 | 81 | 1007.6 |
| 20260906135033 | 71 | 344 | 2.0 | 5.0 | 0.00 | 0.00 | 0.00 | 82 | 1007.7 |
| 20260906134527 | 71 | 94 | 1.0 | 5.0 | 0.00 | 0.00 | 0.00 | 81 | 1007.7 |
| 20260906134022 | 70 | 99 | 1.0 | 6.0 | 0.00 | 0.00 | 0.00 | 83 | 1007.6 |
| 20260906133514 | 70 | 27 | 2.0 | 6.0 | 0.00 | 0.00 | 0.00 | 82 | 1007.6 |
| 20260906133010 | 70 | 67 | 1.0 | 5.0 | 0.00 | 0.00 | 0.00 | 83 | 1007.6 |
| 20260906132504 | 70 | 49 | 2.0 | 5.0 | 0.00 | 0.00 | 0.00 | 84 | 1007.5 |
| 20260906131957 | 69 | 55 | 2.0 | 7.0 | 0.00 | 0.00 | 0.00 | 84 | 1007.5 |
| 20260906131452 | 69 | 72 | 2.0 | 7.0 | 0.00 | 0.00 | 0.00 | 84 | 1007.5 |
| 20260906130945 | 68 | 31 | 2.0 | 5.0 | 0.00 | 0.00 | 0.00 | 85 | 1007.5 |
| 20260906130440 | 68 | 77 | 2.0 | 6.0 | 0.00 | 0.00 | 0.00 | 85 | 1007.5 |
| 20260906125933 | 67 | 162 | 2.0 | 6.0 | 0.00 | 0.00 | 0.00 | 85 | 1007.4 |
| 20260906125427 | 67 | 130 | 1.0 | 4.0 | 0.00 | 0.00 | 0.00 | 83 | 1007.5 |
| 20260906124922 | 67 | 79 | 1.0 | 4.0 | 0.00 | 0.00 | 0.00 | 81 | 1007.4 |
| 20260906124415 | 66 | 25 | 2.0 | 4.0 | 0.00 | 0.00 | 0.00 | 79 | 1007.5 |
| 20260906123909 | 66 | 68 | 2.0 | 5.0 | 0.00 | 0.00 | 0.00 | 76 | 1007.4 |
| 20260906123403 | 65 | 81 | 1.0 | 5.0 | 0.00 | 0.00 | 0.00 | 73 | 1007.4 |
| 20260906122857 | 65 | 91 | 1.0 | 3.0 | 0.00 | 0.00 | 0.00 | 72 | 1007.3 |
| 20260906122352 | 65 | 78 | 1.0 | 3.0 | 0.00 | 0.00 | 0.00 | 72 | 1007.4 |
| 20260906121845 | 64 | 92 | 0.0 | 3.0 | 0.00 | 0.00 | 0.00 | 72 | 1007.3 |
| 20260906121339 | 64 | 80 | 0.0 | 2.0 | 0.00 | 0.00 | 0.00 | 73 | 1007.2 |
| 20260906120833 | 63 | 80 | 0.0 | 2.0 | 0.00 | 0.00 | 0.00 | 73 | 1007.2 |
| 20260906120327 | 63 | 94 | 0.0 | 2.0 | 0.00 | 0.00 | 0.00 | 73 | 1007.2 |
| 20260906115823 | 62 | 68 | 0.0 | 2.0 | 0.00 | 0.00 | 0.00 | 73 | 1007.2 |
| 20260906115542 | 62 | 111 | 0.0 | 2.0 | 0.00 | 0.00 | 0.00 | 73 | 1007.1 |
| 20260906114810 | 62 | 111 | 0.0 | 2.0 | 0.00 | 0.00 | 0.00 | 73 | 1007.0 |
| 20260906114303 | 62 | 101 | 0.0 | 2.0 | 0.00 | 0.00 | 0.00 | 73 | 1006.9 |
| 20260906114023 | 61 | 101 | 0.0 | 2.0 | 0.00 | 0.00 | 0.00 | 73 | 1007.0 |
| 20260906113253 | 61 | 92 | 0.0 | 2.0 | 0.00 | 0.00 | 0.00 | 73 | 1007.0 |
| 20260906112239 | 60 | 91 | 0.0 | 0.0 | 0.00 | 0.00 | 0.00 | 74 | 1006.8 |
| 20260906111733 | 60 | 91 | 0.0 | 0.0 | 0.00 | 0.00 | 0.00 | 74 | 1006.8 |
| 20260906111227 | 60 | 91 | 0.0 | 0.0 | 0.00 | 0.00 | 0.00 | 74 | 1006.7 |
| 20260906110215 | 60 | 91 | 0.0 | 0.0 | 0.00 | 0.00 | 0.00 | 74 | 1006.6 |
| 20260906105709 | 60 | 91 | 0.0 | 0.0 | 0.00 | 0.00 | 0.00 | 74 | 1006.5 |
| 20260906105203 | 60 | 91 | 0.0 | 0.0 | 0.00 | 0.00 | 0.00 | 74 | 1006.4 |
| 20260906104657 | 60 | 91 | 0.0 | 0.0 | 0.00 | 0.00 | 0.00 | 74 | 1006.3 |
| 20260906104152 | 60 | 91 | 0.0 | 0.0 | 0.00 | 0.00 | 0.00 | 73 | 1006.2 |
| 20260906103645 | 60 | 91 | 0.0 | 0.0 | 0.00 | 0.00 | 0.00 | 73 | 1006.2 |
| 20260906103139 | 60 | 91 | 0.0 | 0.0 | 0.00 | 0.00 | 0.00 | 73 | 1006.1 |
| 20260906102633 | 60 | 91 | 0.0 | 0.0 | 0.00 | 0.00 | 0.00 | 73 | 1005.9 |
| 20260906102127 | 60 | 91 | 0.0 | 0.0 | 0.00 | 0.00 | 0.00 | 73 | 1005.9 |
| 20260906101622 | 60 | 91 | 0.0 | 0.0 | 0.00 | 0.00 | 0.00 | 73 | 1005.9 |
| 20260906101115 | 60 | 91 | 0.0 | 0.0 | 0.00 | 0.00 | 0.00 | 73 | 1005.8 |
| 20260906100609 | 60 | 91 | 0.0 | 0.0 | 0.00 | 0.00 | 0.00 | 73 | 1005.8 |
| 20260906100103 | 60 | 91 | 0.0 | 0.0 | 0.00 | 0.00 | 0.00 | 73 | 1005.7 |
| 20260906095557 | 60 | 91 | 0.0 | 0.0 | 0.00 | 0.00 | 0.00 | 73 | 1005.6 |
| 20260906095317 | 60 | 91 | 0.0 | 0.0 | 0.00 | 0.00 | 0.00 | 73 | 1005.6 |
| 20260906094545 | 60 | 91 | 0.0 | 0.0 | 0.00 | 0.00 | 0.00 | 73 | 1005.6 |
| 20260906093251 | 60 | 91 | 0.0 | 0.0 | 0.00 | 0.00 | 0.00 | 73 | 1005.4 |
| 20260906092744 | 60 | 91 | 0.0 | 0.0 | 0.00 | 0.00 | 0.00 | 73 | 1005.4 |
| 20260906092015 | 60 | 91 | 0.0 | 0.0 | 0.00 | 0.00 | 0.00 | 73 | 1005.3 |
| 20260906091509 | 60 | 90 | 0.0 | 0.0 | 0.00 | 0.00 | 0.00 | 73 | 1005.2 |
| 20260906091002 | 60 | 90 | 0.0 | 0.0 | 0.00 | 0.00 | 0.00 | 73 | 1005.2 |
| 20260906090457 | 60 | 91 | 0.0 | 0.0 | 0.00 | 0.00 | 0.00 | 73 | 1005.1 |
| 20260906085444 | 61 | 91 | 0.0 | 0.0 | 0.00 | 0.00 | 0.00 | 73 | 1005.1 |
| 20260906084938 | 61 | 91 | 0.0 | 0.0 | 0.00 | 0.00 | 0.00 | 73 | 1005.1 |
| 20260906084433 | 61 | 90 | 0.0 | 0.0 | 0.00 | 0.00 | 0.00 | 73 | 1005.1 |
| 20260906083926 | 61 | 91 | 0.0 | 0.0 | 0.00 | 0.00 | 0.00 | 73 | 1005.1 |
| 20260906083422 | 61 | 91 | 0.0 | 0.0 | 0.00 | 0.00 | 0.00 | 73 | 1005.0 |
| 20260906082915 | 61 | 91 | 0.0 | 0.0 | 0.00 | 0.00 | 0.00 | 73 | 1005.1 |
| 20260906082409 | 61 | 91 | 0.0 | 0.0 | 0.00 | 0.00 | 0.00 | 73 | 1005.1 |
| 20260906081904 | 61 | 91 | 0.0 | 0.0 | 0.00 | 0.00 | 0.00 | 73 | 1005.1 |
| 20260906081357 | 61 | 91 | 0.0 | 0.0 | 0.00 | 0.00 | 0.00 | 73 | 1004.9 |
| 20260906080852 | 61 | 91 | 0.0 | 0.0 | 0.00 | 0.00 | 0.00 | 73 | 1004.9 |
| 20260906080345 | 61 | 91 | 0.0 | 0.0 | 0.00 | 0.00 | 0.00 | 73 | 1004.8 |
| 20260906075839 | 61 | 91 | 0.0 | 0.0 | 0.00 | 0.00 | 0.00 | 73 | 1004.9 |
| 20260906075333 | 62 | 91 | 0.0 | 0.0 | 0.00 | 0.00 | 0.00 | 73 | 1004.8 |
| 20260906074827 | 62 | 91 | 0.0 | 0.0 | 0.00 | 0.00 | 0.00 | 73 | 1004.8 |
| 20260906074322 | 62 | 91 | 0.0 | 0.0 | 0.00 | 0.00 | 0.00 | 73 | 1004.7 |
| 20260906073815 | 62 | 91 | 0.0 | 0.0 | 0.00 | 0.00 | 0.00 | 73 | 1004.7 |
| 20260906073309 | 62 | 91 | 0.0 | 0.0 | 0.00 | 0.00 | 0.00 | 73 | 1004.7 |
| 20260906072803 | 62 | 91 | 0.0 | 0.0 | 0.00 | 0.00 | 0.00 | 72 | 1004.8 |
| 20260906072256 | 62 | 91 | 0.0 | 0.0 | 0.00 | 0.00 | 0.00 | 73 | 1004.7 |
| 20260906071752 | 62 | 91 | 0.0 | 0.0 | 0.00 | 0.00 | 0.00 | 72 | 1004.6 |
| 20260906071246 | 62 | 91 | 0.0 | 0.0 | 0.00 | 0.00 | 0.00 | 72 | 1004.6 |
| 20260906070739 | 62 | 91 | 0.0 | 0.0 | 0.00 | 0.00 | 0.00 | 72 | 1004.6 |
| 20260906070233 | 62 | 91 | 0.0 | 0.0 | 0.00 | 0.00 | 0.00 | 72 | 1004.6 |
| 20260906065727 | 62 | 91 | 0.0 | 0.0 | 0.00 | 0.00 | 0.00 | 72 | 1004.6 |
| 20260906065222 | 62 | 91 | 0.0 | 0.0 | 0.00 | 0.00 | 0.00 | 72 | 1004.7 |
| 20260906064934 | 62 | 91 | 0.0 | 0.0 | 0.00 | 0.00 | 0.00 | 72 | 1004.8 |
| 20260906064209 | 62 | 91 | 0.0 | 0.0 | 0.00 | 0.00 | 0.00 | 72 | 1004.8 |
| 20260906063418 | 63 | 91 | 0.0 | 1.0 | 0.00 | 0.00 | 0.00 | 72 | 1004.9 |
| 20260906062654 | 63 | 91 | 0.0 | 1.0 | 0.00 | 0.00 | 0.00 | 72 | 1004.9 |
| 20260906062146 | 63 | 10 | 0.0 | 0.0 | 0.00 | 0.00 | 0.00 | 72 | 1004.9 |
| 20260906061639 | 63 | 10 | 0.0 | 0.0 | 0.00 | 0.00 | 0.00 | 72 | 1004.9 |
| 20260906061133 | 63 | 10 | 0.0 | 1.0 | 0.00 | 0.00 | 0.00 | 72 | 1004.9 |
| 20260906060627 | 63 | 10 | 0.0 | 1.0 | 0.00 | 0.00 | 0.00 | 72 | 1004.8 |
| 20260906060123 | 63 | 252 | 0.0 | 0.0 | 0.00 | 0.00 | 0.00 | 72 | 1004.6 |
| 20260906055615 | 63 | 252 | 0.0 | 0.0 | 0.00 | 0.00 | 0.00 | 73 | 1004.6 |
| 20260906055109 | 63 | 252 | 0.0 | 0.0 | 0.00 | 0.00 | 0.00 | 73 | 1004.7 |
| 20260906054603 | 63 | 252 | 0.0 | 0.0 | 0.00 | 0.00 | 0.00 | 72 | 1004.7 |
| 20260906054058 | 63 | 252 | 0.0 | 0.0 | 0.00 | 0.00 | 0.00 | 72 | 1004.7 |
| 20260906053552 | 63 | 252 | 0.0 | 0.0 | 0.00 | 0.00 | 0.00 | 72 | 1004.8 |
| 20260906053045 | 63 | 252 | 0.0 | 0.0 | 0.00 | 0.00 | 0.00 | 72 | 1004.9 |
| 20260906052539 | 63 | 252 | 0.0 | 0.0 | 0.00 | 0.00 | 0.00 | 72 | 1004.9 |
| 20260906052034 | 63 | 252 | 0.0 | 0.0 | 0.00 | 0.00 | 0.00 | 73 | 1005.0 |
| 20260906051529 | 63 | 252 | 0.0 | 0.0 | 0.00 | 0.00 | 0.00 | 72 | 1005.0 |
| 20260906051301 | 64 | 252 | 0.0 | 0.0 | 0.00 | 0.00 | 0.00 | 72 | 1005.1 |
| 20260906050529 | 64 | 252 | 0.0 | 1.0 | 0.00 | 0.00 | 0.00 | 72 | 1005.1 |
| 20260906050029 | 64 | 252 | 0.0 | 1.0 | 0.00 | 0.00 | 0.00 | 72 | 1005.1 |
| 20260906045526 | 64 | 252 | 0.0 | 0.0 | 0.00 | 0.00 | 0.00 | 72 | 1005.1 |
| 20260906045027 | 64 | 252 | 0.0 | 0.0 | 0.00 | 0.00 | 0.00 | 73 | 1005.1 |
| 20260906044524 | 64 | 252 | 0.0 | 0.0 | 0.00 | 0.00 | 0.00 | 73 | 1005.1 |
| 20260906044023 | 64 | 252 | 0.0 | 0.0 | 0.00 | 0.00 | 0.00 | 73 | 1005.2 |
| 20260906043523 | 64 | 252 | 0.0 | 0.0 | 0.00 | 0.00 | 0.00 | 73 | 1005.2 |
| 20260906043246 | 64 | 252 | 0.0 | 0.0 | 0.00 | 0.00 | 0.00 | 73 | 1005.1 |
| 20260906042520 | 64 | 252 | 0.0 | 0.0 | 0.00 | 0.00 | 0.00 | 73 | 1005.1 |
| 20260906042251 | 64 | 252 | 0.0 | 0.0 | 0.00 | 0.00 | 0.00 | 73 | 1005.1 |
| 20260906041520 | 64 | 252 | 0.0 | 0.0 | 0.00 | 0.00 | 0.00 | 73 | 1005.0 |
| 20260906041022 | 64 | 252 | 0.0 | 0.0 | 0.00 | 0.00 | 0.00 | 73 | 1005.1 |
| 20260906040522 | 64 | 252 | 0.0 | 0.0 | 0.00 | 0.00 | 0.00 | 73 | 1005.1 |
| 20260906040018 | 65 | 252 | 0.0 | 0.0 | 0.00 | 0.00 | 0.00 | 73 | 1005.1 |
| 20260906035513 | 65 | 252 | 0.0 | 0.0 | 0.00 | 0.00 | 0.00 | 73 | 1005.3 |
| 20260906035007 | 65 | 252 | 0.0 | 0.0 | 0.00 | 0.00 | 0.00 | 73 | 1005.3 |
| 20260906034500 | 65 | 252 | 0.0 | 0.0 | 0.00 | 0.00 | 0.00 | 73 | 1005.2 |
| 20260906033954 | 65 | 252 | 0.0 | 0.0 | 0.00 | 0.00 | 0.00 | 72 | 1005.3 |
| 20260906033448 | 65 | 252 | 0.0 | 0.0 | 0.00 | 0.00 | 0.00 | 72 | 1005.3 |
| 20260906032942 | 65 | 252 | 0.0 | 0.0 | 0.00 | 0.00 | 0.00 | 73 | 1005.2 |
| 20260906032436 | 65 | 252 | 0.0 | 0.0 | 0.00 | 0.00 | 0.00 | 74 | 1005.3 |
| 20260906031424 | 65 | 252 | 0.0 | 0.0 | 0.00 | 0.00 | 0.00 | 74 | 1005.3 |
| 20260906030918 | 66 | 252 | 0.0 | 0.0 | 0.00 | 0.00 | 0.00 | 74 | 1005.3 |
| 20260906030413 | 66 | 252 | 0.0 | 0.0 | 0.00 | 0.00 | 0.00 | 73 | 1005.2 |
| 20260906030133 | 66 | 252 | 0.0 | 0.0 | 0.00 | 0.00 | 0.00 | 73 | 1005.3 |
| 20260906025400 | 66 | 252 | 0.0 | 0.0 | 0.00 | 0.00 | 0.00 | 75 | 1005.2 |
| 20260906025120 | 66 | 252 | 0.0 | 0.0 | 0.00 | 0.00 | 0.00 | 75 | 1005.2 |
| 20260906024613 | 66 | 252 | 0.0 | 0.0 | 0.00 | 0.00 | 0.00 | 75 | 1005.2 |
| 20260906023843 | 66 | 252 | 0.0 | 0.0 | 0.00 | 0.00 | 0.00 | 75 | 1005.2 |
| 20260906023336 | 67 | 252 | 0.0 | 0.0 | 0.00 | 0.00 | 0.00 | 76 | 1005.2 |
| 20260906022829 | 67 | 252 | 0.0 | 0.0 | 0.00 | 0.00 | 0.00 | 76 | 1005.1 |
| 20260906022324 | 67 | 252 | 0.0 | 0.0 | 0.00 | 0.00 | 0.00 | 76 | 1005.0 |
| 20260906021818 | 67 | 252 | 0.0 | 0.0 | 0.00 | 0.00 | 0.00 | 76 | 1005.1 |
| 20260906021312 | 67 | 252 | 0.0 | 0.0 | 0.00 | 0.00 | 0.00 | 76 | 1005.1 |
| 20260906020806 | 67 | 252 | 0.0 | 0.0 | 0.00 | 0.00 | 0.00 | 77 | 1005.2 |
| 20260906020300 | 68 | 252 | 0.0 | 0.0 | 0.00 | 0.00 | 0.00 | 77 | 1005.1 |
| 20260906015754 | 68 | 252 | 0.0 | 0.0 | 0.00 | 0.00 | 0.00 | 77 | 1005.1 |
| 20260906014743 | 68 | 252 | 0.0 | 0.0 | 0.00 | 0.00 | 0.00 | 78 | 1004.9 |
| 20260906014236 | 69 | 252 | 0.0 | 0.0 | 0.00 | 0.00 | 0.00 | 78 | 1004.7 |
| 20260906013730 | 69 | 252 | 0.0 | 0.0 | 0.00 | 0.00 | 0.00 | 78 | 1004.7 |
| 20260906013224 | 69 | 252 | 0.0 | 0.0 | 0.00 | 0.00 | 0.00 | 78 | 1004.7 |
| 20260906012943 | 69 | 252 | 0.0 | 0.0 | 0.00 | 0.00 | 0.00 | 79 | 1004.6 |
| 20260906012213 | 69 | 252 | 0.0 | 0.0 | 0.00 | 0.00 | 0.00 | 79 | 1004.6 |
| 20260906011710 | 69 | 252 | 0.0 | 0.0 | 0.00 | 0.00 | 0.00 | 79 | 1004.6 |
| 20260906011209 | 69 | 252 | 0.0 | 0.0 | 0.00 | 0.00 | 0.00 | 81 | 1004.5 |
| 20260906010710 | 69 | 252 | 0.0 | 0.0 | 0.00 | 0.00 | 0.00 | 80 | 1004.6 |
| 20260906010208 | 70 | 252 | 0.0 | 0.0 | 0.00 | 0.00 | 0.00 | 81 | 1004.5 |
| 20260906005706 | 70 | 252 | 0.0 | 0.0 | 0.00 | 0.00 | 0.00 | 81 | 1004.4 |
| 20260906005426 | 70 | 252 | 0.0 | 0.0 | 0.00 | 0.00 | 0.00 | 82 | 1004.4 |
| 20260906004706 | 70 | 252 | 0.0 | 0.0 | 0.00 | 0.00 | 0.00 | 82 | 1004.4 |
| 20260906004206 | 70 | 252 | 0.0 | 0.0 | 0.00 | 0.00 | 0.00 | 82 | 1004.4 |
| 20260906003930 | 71 | 252 | 0.0 | 0.0 | 0.00 | 0.00 | 0.00 | 83 | 1004.3 |
| 20260906003204 | 71 | 252 | 0.0 | 0.0 | 0.00 | 0.00 | 0.00 | 83 | 1004.3 |
| 20260906002706 | 71 | 252 | 0.0 | 0.0 | 0.00 | 0.00 | 0.00 | 83 | 1004.2 |
| 20260906002204 | 71 | 252 | 0.0 | 0.0 | 0.00 | 0.00 | 0.00 | 83 | 1004.1 |
| 20260906001701 | 71 | 252 | 0.0 | 0.0 | 0.00 | 0.00 | 0.00 | 84 | 1004.0 |
| 20260906001427 | 72 | 252 | 0.0 | 0.0 | 0.00 | 0.00 | 0.00 | 84 | 1004.0 |
| 20260906000703 | 72 | 251 | 0.0 | 0.0 | 0.00 | 0.00 | 0.00 | 84 | 1004.1 |
| 20260906000158 | 72 | 252 | 0.0 | 0.0 | 0.00 | 0.00 | 0.00 | 84 | 1004.0 |
| 20260905235658 | 72 | 252 | 0.0 | 0.0 | 0.00 | 0.00 | 0.00 | 84 | 1004.0 |
| 20260905235156 | 73 | 252 | 0.0 | 0.0 | 0.00 | 0.00 | 0.00 | 83 | 1004.0 |
| 20260905234655 | 73 | 252 | 0.0 | 0.0 | 0.00 | 0.00 | 0.00 | 83 | 1004.0 |
| 20260905234150 | 74 | 252 | 0.0 | 0.0 | 0.00 | 0.00 | 0.00 | 83 | 1003.9 |
| 20260905233644 | 74 | 252 | 0.0 | 0.0 | 0.00 | 0.00 | 0.00 | 82 | 1003.8 |
| 20260905233138 | 74 | 252 | 0.0 | 0.0 | 0.00 | 0.00 | 0.00 | 82 | 1003.8 |
| 20260905232632 | 75 | 252 | 0.0 | 0.0 | 0.00 | 0.00 | 0.00 | 82 | 1003.7 |
| 20260905232345 | 75 | 252 | 0.0 | 0.0 | 0.00 | 0.00 | 0.00 | 81 | 1003.7 |
| 20260905231620 | 75 | 252 | 0.0 | 0.0 | 0.00 | 0.00 | 0.00 | 81 | 1003.6 |
| 20260905231114 | 76 | 252 | 0.0 | 0.0 | 0.00 | 0.00 | 0.00 | 81 | 1003.6 |
| 20260905230608 | 76 | 251 | 0.0 | 0.0 | 0.00 | 0.00 | 0.00 | 81 | 1003.8 |
| 20260905225555 | 77 | 251 | 0.0 | 0.0 | 0.00 | 0.00 | 0.00 | 79 | 1003.7 |
| 20260905225322 | 77 | 252 | 0.0 | 0.0 | 0.00 | 0.00 | 0.00 | 77 | 1003.8 |
| 20260905224543 | 77 | 252 | 0.0 | 0.0 | 0.00 | 0.00 | 0.00 | 76 | 1003.7 |
| 20260905224038 | 78 | 252 | 0.0 | 0.0 | 0.00 | 0.00 | 0.00 | 76 | 1003.6 |
| 20260905223532 | 78 | 251 | 0.0 | 0.0 | 0.00 | 0.00 | 0.00 | 76 | 1003.5 |
| 20260905223026 | 79 | 252 | 0.0 | 0.0 | 0.00 | 0.00 | 0.00 | 76 | 1003.4 |
| 20260905222520 | 79 | 252 | 0.0 | 0.0 | 0.00 | 0.00 | 0.00 | 74 | 1003.3 |
| 20260905222014 | 80 | 251 | 0.0 | 0.0 | 0.00 | 0.00 | 0.00 | 72 | 1003.3 |
| 20260905221731 | 80 | 251 | 0.0 | 0.0 | 0.00 | 0.00 | 0.00 | 71 | 1003.3 |
| 20260905221002 | 81 | 252 | 0.0 | 0.0 | 0.00 | 0.00 | 0.00 | 71 | 1003.2 |
| 20260905220456 | 82 | 251 | 0.0 | 1.0 | 0.00 | 0.00 | 0.00 | 70 | 1003.2 |
| 20260905215951 | 82 | 252 | 0.0 | 1.0 | 0.00 | 0.00 | 0.00 | 70 | 1003.2 |
| 20260905215444 | 83 | 243 | 0.0 | 1.0 | 0.00 | 0.00 | 0.00 | 70 | 1003.1 |
| 20260905214937 | 82 | 243 | 0.0 | 1.0 | 0.00 | 0.00 | 0.00 | 71 | 1003.0 |
| 20260905214438 | 82 | 244 | 0.0 | 1.0 | 0.00 | 0.00 | 0.00 | 68 | 1003.0 |
| 20260905213938 | 82 | 238 | 0.0 | 1.0 | 0.00 | 0.00 | 0.00 | 66 | 1003.1 |
| 20260905213440 | 83 | 238 | 0.0 | 2.0 | 0.00 | 0.00 | 0.00 | 63 | 1003.0 |
| 20260905212437 | 83 | 210 | 0.0 | 1.0 | 0.00 | 0.00 | 0.00 | 62 | 1002.9 |
| 20260905211938 | 83 | 58 | 0.0 | 1.0 | 0.00 | 0.00 | 0.00 | 63 | 1002.7 |
| 20260905211437 | 83 | 58 | 0.0 | 3.0 | 0.00 | 0.00 | 0.00 | 65 | 1002.7 |
| 20260905211205 | 83 | 58 | 1.0 | 3.0 | 0.00 | 0.00 | 0.00 | 64 | 1002.7 |
| 20260905210438 | 83 | 84 | 0.0 | 2.0 | 0.00 | 0.00 | 0.00 | 65 | 1002.7 |
| 20260905205935 | 83 | 84 | 1.0 | 3.0 | 0.00 | 0.00 | 0.00 | 65 | 1002.7 |
| 20260905205655 | 82 | 87 | 2.0 | 7.0 | 0.00 | 0.00 | 0.00 | 66 | 1002.7 |
| 20260905204435 | 83 | 60 | 1.0 | 5.0 | 0.00 | 0.00 | 0.00 | 63 | 1002.6 |
| 20260905204153 | 84 | 96 | 0.0 | 4.0 | 0.00 | 0.00 | 0.00 | 65 | 1002.7 |
| 20260905203652 | 83 | 241 | 0.0 | 3.0 | 0.00 | 0.00 | 0.00 | 63 | 1002.8 |
| 20260905202930 | 83 | 97 | 1.0 | 3.0 | 0.00 | 0.00 | 0.00 | 65 | 1002.9 |
| 20260905202430 | 83 | 243 | 1.0 | 3.0 | 0.00 | 0.00 | 0.00 | 68 | 1002.8 |
| 20260905201930 | 82 | 262 | 0.0 | 1.0 | 0.00 | 0.00 | 0.00 | 71 | 1002.8 |
| 20260905201430 | 82 | 34 | 0.0 | 2.0 | 0.00 | 0.00 | 0.00 | 71 | 1002.8 |
| 20260905200930 | 81 | 34 | 1.0 | 4.0 | 0.00 | 0.00 | 0.00 | 70 | 1002.9 |
| 20260905200429 | 81 | 61 | 0.0 | 4.0 | 0.00 | 0.00 | 0.00 | 68 | 1002.9 |
| 20260905200150 | 82 | 85 | 1.0 | 5.0 | 0.00 | 0.00 | 0.00 | 67 | 1002.9 |
| 20260905195431 | 82 | 101 | 1.0 | 6.0 | 0.00 | 0.00 | 0.00 | 65 | 1002.8 |
| 20260905194930 | 82 | 328 | 2.0 | 6.0 | 0.00 | 0.00 | 0.00 | 66 | 1002.9 |
| 20260905194426 | 82 | 65 | 1.0 | 6.0 | 0.00 | 0.00 | 0.00 | 66 | 1002.8 |
| 20260905193925 | 82 | 63 | 1.0 | 6.0 | 0.00 | 0.00 | 0.00 | 66 | 1002.8 |
| 20260905193425 | 82 | 65 | 0.0 | 3.0 | 0.00 | 0.00 | 0.00 | 67 | 1002.9 |
| 20260905192926 | 82 | 47 | 1.0 | 3.0 | 0.00 | 0.00 | 0.00 | 68 | 1003.0 |
| 20260905192425 | 81 | 68 | 1.0 | 3.0 | 0.00 | 0.00 | 0.00 | 69 | 1003.0 |
| 20260905191926 | 81 | 101 | 0.0 | 3.0 | 0.00 | 0.00 | 0.00 | 72 | 1003.0 |